Acme Export from India

Acme

Acme export data

Date HS Code Product Description Origin Port Destination Port Quantity Value (INR in Million) Unit Per Unit (INR)
2016-04-18 85181000 P.A.SYSTEM/P.A.EQUIPMENT-MICROPHONE ACM-66 Tughlakabad Jebel Ali 10 0.0107 PCS 1065.0
2016-04-18 85181000 P.A.SYSTEM/P.A.EQUIPMENT-MICROPHONE ACM-66CH Tughlakabad Jebel Ali 10 0.0127 PCS 1270.0
2016-04-18 88033000 ACM P/N 7010121H03 S/N 4365757 AEROPLANEPART Delhi Air Cargo NEW YORK - JOHN F. K 1 1.2855 NOS 1285525.0
2016-04-19 84184010 SCIENTFIC GOODS- WEIBER - TEMP.& HUMIDITY CONTROL CABINET (ACM-78092-S) Tughlakabad Jebel Ali 1 0.3436 NOS 343608.0
2016-04-19 84619000 COBALT BEARING HIGH SPEED STEEL ( GEAR CUTTING TOOLS )- MACHINE TAPS (M39.50 X 4 TPI ACME OAL = 8" } Delhi Air Cargo DUBAI 6 0.1011 NOS 16856.0
2016-04-19 84619000 COBALT BEARING HIGH SPEED STEEL ( GEAR CUTTING TOOLS )- MACHINE TAPS (M50.50 X 4 TPI ACME OAL = 10" } Delhi Air Cargo DUBAI 6 0.1926 NOS 32092.0
2016-04-19 90318000 SETTING PLUG GAUGE 2.870-6 STUB ACME GO Bombay Air Cargo DUBAI 1 0.0017 NOS 1711.0
2016-04-19 90318000 SETTING PLUG GAUGE 3 5/8-6 STUB ACME GO Bombay Air Cargo DUBAI 1 0.0017 NOS 1711.0
2016-04-19 90318000 SETTING PLUG GAUGE 3.031-8 STUB ACME GO Bombay Air Cargo DUBAI 1 0.0017 NOS 1711.0
2016-04-19 90318000 SETTING PLUG GAUGE 3.216-6 STUB ACME GO Bombay Air Cargo DUBAI 1 0.0011 NOS 1119.0
2016-04-19 90318000 SETTING PLUG GAUGE 3.740-4 STUB ACME GO Bombay Air Cargo DUBAI 1 0.0011 NOS 1119.0
2016-04-19 90318000 SETTING PLUG GAUGE 3.966-6 STUB ACME GO Bombay Air Cargo DUBAI 1 0.0017 NOS 1711.0
2016-04-19 90318000 SETTING PLUG GAUGE 4.056-6 STUB ACME Bombay Air Cargo DUBAI 1 0.0017 NOS 1711.0
2016-04-19 90318000 SETTING PLUG GAUGE 4.173-6 STUB ACME GO Bombay Air Cargo DUBAI 1 0.0017 NOS 1711.0
2016-04-19 90318000 SETTING PLUG GAUGE 4.198-6 STUB ACME GO Bombay Air Cargo DUBAI 1 0.0017 NOS 1711.0
2016-04-19 90318000 SETTING PLUG GAUGE 4.407-6 STUB ACME GO Bombay Air Cargo DUBAI 1 0.0017 NOS 1711.0
2016-04-19 90318000 SETTING PLUG GAUGE 4.746-6 STUB ACME GO Bombay Air Cargo DUBAI 1 0.002 NOS 1974.0
2016-04-19 90318000 SETTING PLUG GAUGE 4.908-12 STUB ACME GO Bombay Air Cargo DUBAI 1 0.002 NOS 1974.0
2016-04-19 90318000 SETTING PLUG GAUGE 4.950-4 STUB ACME GO Bombay Air Cargo DUBAI 1 0.002 NOS 1974.0
2016-04-19 90318000 SETTING PLUG GAUGE 5.458-4 STUB ACME GO Bombay Air Cargo DUBAI 1 0.002 NOS 1974.0
2016-04-19 90318000 SETTING PLUG GAUGE 5.671-4 STUB ACME GO Bombay Air Cargo DUBAI 1 0.002 NOS 1974.0
2016-04-19 90318000 SETTING PLUG GAUGE 6.00-4 STUB ACME GO Bombay Air Cargo DUBAI 1 0.002 NOS 1974.0
2016-04-19 90318000 SETTING PLUG GAUGE 6.093-12 STUB ACME GO Bombay Air Cargo DUBAI 1 0.0022 NOS 2237.0
2016-04-19 90318000 SETTING PLUG GAUGE 6.647-4 STUB ACME GO Bombay Air Cargo DUBAI 1 0.002 NOS 1974.0
2016-04-19 90318000 SETTING PLUG GAUGE 6.770-4 STUB ACME GO Bombay Air Cargo DUBAI 1 0.002 NOS 1974.0
2016-04-19 90318000 THREAD RING GAUGE 2.870-6 STUB ACME GO Bombay Air Cargo DUBAI 1 0.0017 NOS 1711.0
2016-04-19 90318000 THREAD RING GAUGE 3 5/8-6 STUB ACME GO Bombay Air Cargo DUBAI 1 0.0017 NOS 1711.0
2016-04-19 90318000 THREAD RING GAUGE 3.216-6 STUB ACME GO Bombay Air Cargo DUBAI 1 0.0011 NOS 1119.0
2016-04-19 90318000 THREAD RING GAUGE 3.740-4 STUB ACME GO Bombay Air Cargo DUBAI 1 0.0011 NOS 1119.0
2016-04-19 90318000 THREAD RING GAUGE 3.966-6 STUB ACME GO Bombay Air Cargo DUBAI 1 0.0017 NOS 1711.0
2016-04-19 90318000 THREAD RING GAUGE 4.056-6 STUB ACME GO Bombay Air Cargo DUBAI 1 0.0017 NOS 1711.0
2016-04-19 90318000 THREAD RING GAUGE 4.173-6 STUB ACME GO Bombay Air Cargo DUBAI 1 0.0017 NOS 1711.0
2016-04-19 90318000 THREAD RING GAUGE 4.198-6 STUB ACME GO Bombay Air Cargo DUBAI 1 0.0017 NOS 1711.0
2016-04-19 90318000 THREAD RING GAUGE 4.407-6 STUB ACME GO Bombay Air Cargo DUBAI 1 0.0017 NOS 1711.0
2016-04-19 90318000 THREAD RING GAUGE 4.746-6 STUB ACME GO Bombay Air Cargo DUBAI 1 0.002 NOS 1974.0
2016-04-19 90318000 THREAD RING GAUGE 4.908-12 STUB ACME GO Bombay Air Cargo DUBAI 1 0.002 NOS 1974.0
2016-04-19 90318000 THREAD RING GAUGE 4.950-4 STUB ACME GO Bombay Air Cargo DUBAI 1 0.002 NOS 1974.0
2016-04-19 90318000 THREAD RING GAUGE 5.458-4 STUB ACME GO Bombay Air Cargo DUBAI 1 0.002 NOS 1974.0
2016-04-19 90318000 THREAD RING GAUGE 5.671-4 STUB ACME GO Bombay Air Cargo DUBAI 1 0.002 NOS 1974.0
2016-04-19 90318000 THREAD RING GAUGE 6.00-4 STUB ACME GO Bombay Air Cargo DUBAI 1 0.002 NOS 1974.0
2016-04-19 90318000 THREAD RING GAUGE 6.093-12 STUB ACME GO Bombay Air Cargo DUBAI 1 0.0022 NOS 2237.0
2016-04-19 90318000 THREAD RING GAUGE 6.647-4 STUB ACME GO Bombay Air Cargo DUBAI 1 0.002 NOS 1974.0
2016-04-19 90318000 THREAD RING GAUGE 6.770-4 STUB ACME GO Bombay Air Cargo DUBAI 1 0.002 NOS 1974.0
2016-04-20 84819090 PARTS OF CONTROL VALVE - DWGREV: 01;HW SCREW, SIZE 200, LIMITORQUE, B020-20, 8 STROKE, 2.12-4 ACME, BRASS, B-16HO2, (UNS Bangalore ICD Springville 5 0.0558 NOS 11155.0
2016-04-20 84819090 PARTS OF VALVES NUT HEX JAM 1 1/2-6 ACME -2G-SPL P/N 18A2302X012 Bombay Air Cargo TIANJIN 14 0.0143 PCS 1019.0
2016-04-21 84149019 SPARE PARTS FOR SCREW AIR COMPRESSOR:PIPE COUPLING 1-1/2 STY12(ACM Coimbatore - Irugur ICD Colombo 7 0.0028 NOS 398.0
2016-04-21 84149019 SPARE PARTS FOR SCREW AIR COMPRESSOR:PIPE COUPLING 2-1/2 STY12(ACM Coimbatore - Irugur ICD Colombo 6 0.0028 NOS 463.0
2016-04-21 84149019 SPARE PARTS FOR SCREW AIR COMPRESSOR:PIPE COUPLING 2"STY12(ACM Coimbatore - Irugur ICD Colombo 6 0.0021 NOS 358.0
2016-04-21 84819090 MACHINED VALVE PARTSBONNET (ACME THREADS)01350724115215003 Banglore Air Cargo NEW YORK 2 0.002 NOS 1006.0
2016-04-21 84819090 PARTS OF VALVES - NUT, HEX, JAM - 1 1/2-6 ACME-2G-SPL Nhava Sheva Sea Port Kelang 10 0.0102 NOS 1019.0
2016-04-21 85181000 P.A.SYSTEM/P.A.EQUIPMENT-MICROPHONE ACM-66 Tughlakabad Jebel Ali 20 0.0202 PCS 1010.0
2016-04-22 84819090 INDUSTRIAL VALVE SPARES-DWGREV:00;ASSY,SMHW,SIZE 50, 1.00-8 ACME, HW,12.00 DIA-PART NO:121930.999.000 Chennai Sea Los Angeles 6 0.0855 NOS 14252.0
2016-04-25 84819090 PARTS OF CONTROL VALVE - DWGREV: 00; ACTUATOR SIZE 50, VL, 2.62 SPUD, 1.00-12 THD, SMHW, AIR/RET, 1.00-8 ACME, MTL CODE Bangalore ICD Springville 2 0.0728 NOS 36404.0
2016-04-26 84819090 PARTS OF VALVES -NUT, HEX, JAM-1 1/2-6 ACME-2G-SPL Nhava Sheva Sea Dallas 2 0.002 NOS 1020.0
2016-04-26 90318000 SCREW PLUG GAUGES 1/2- 10 ACME 2G GO& NOGO PLUG Bombay Air Cargo TEL AVIV YAFO 1 0.005 NOS 5038.0
2016-04-29 34012000 ACME BROWN SOAP (INDUSTRIAL SOAP) Nhava Sheva Sea Sohar 2400 0.2107 KGS 87.0
2016-04-29 84371000 OS-080620-01,SAW MOTOR BASE ASSEMBLY,INCLUDES ;BASE,PIPE,HINGE & BRACKETS,SCREWBLOCKS,OVERSIZE ACME THREADED ROD,HAND W Nhava Sheva Sea Dallas 6 0.1732 NOS 28867.0
2016-04-29 85389000 MACHINERY PARTS NUT 1 1/2 5 ACME SOURCECONTROL DWG PART NO 400-10-0142 Ahmedabad NEW YORK 10 0.0056 NOS 562.0
2016-04-30 84819090 PARTS OF CONTROL VAlLVE DWGREW: 01SCREW, SIZE 100/200, LIMITORQUE, B320-20 4 STROKE 2 12-4 ACME, BRASS B -16 -HO2, (UNS Bangalore ICD Springville 5 0.0424 NOS 8481.0
2016-04-30 84879000 PRECISION MACHINED COMPONENTS (OTHER MACHINERY PARTS OF HEADING 8485) ACME NUT 134713-001 Banglore Air Cargo SHANGHAI 5 0.0149 NOS 2978.0
2016-05-03 84362900 SCIENTIFIC GOODS- WEIBER - WALK IN PLANT GROWTH CHAMBER (ACM-0145WP) INTERNAL DIMENSIONS: 2X2.5X2.5 METER Tughlakabad Jakarta 1 1.2332 NOS 1233173.0
2016-05-03 84661010 CNC MILLING MACHINE PARTS-TAPPING CHUK WFLK 013-0B ACME 5/8P/N 12008119WEINTENDTOCLAIMREWARDSUNDER MEIS SCHEME Banglore Air Cargo CHICAGO, IL 9 0.0504 NOS 5597.0
2016-05-03 84819090 PARTS OF CONTROL VALVE - DWGREV: 01 HW SCREW, SIZE 100/200, LIMITORQUE, B320-20,4 STROKE, 2 12-4 ACME, BRASS, BRASS B-1 Bangalore ICD Springville 1 0.0085 NOS 8481.0
2016-05-03 84819090 PARTS OF CONTROL VALVE - DWGREV: 01; HWSCREW, SIZE 100/200, LIMITORQUE, B320-20, 4 STROKE, 2.12-4 ACME, BRASS, B-16-HO2 Bangalore ICD Springville 3 0.0254 NOS 8481.0
2016-05-03 84819090 PARTS OF VALVES NUT HEX JAM-1 1/2-6 ACME-2G-SPL P/N 18A2302X012 Bombay Air Cargo TIANJIN 10 0.0102 NOS 1020.0
2016-05-03 85181000 P.A.SYSTEM/P.A.EQUIPMENT-MICROPHONE ACM-66 Tughlakabad Alger 20 0.022 PCS 1099.0
2016-05-03 85181000 P.A.SYSTEM/P.A.EQUIPMENT-MICROPHONE ACM-88 Tughlakabad Alger 20 0.0277 PCS 1386.0
2016-05-03 90318000 SCREW RING GAUGES:97.2 MM-16 STUB ACME 3G (DRG NO-45202-231/45203-206) GO & NOGORING Bombay Air Cargo TEL AVIV YAFO 1 0.0421 SET 42144.0
2016-05-04 84669390 1.1/4-5 ACME-2G GO Dighi(Pune) Tel Aviv 1 0.0103 PCS 10338.0
2016-05-04 84819090 PARTS FOR INDUSTRIAL VALVES:- REDRESS KIT FOR THE 16"STUFFING BOX 5.3/4"-4 ACME,0.125" WIRE, AFLAS Bombay Air Cargo DAMMAM 1 0.0382 SET 38193.0

Acme Trade Data - Indian Ports

S. No Product Product Code Quantity Value (INR in Million) Unit Origin Port Destination Port
THREAD RING GAUGE 3.740-4 STUB ACME GO 90318000 1 0.0011 NOS Bombay Air Cargo DUBAI
THREAD RING GAUGE 3.966-6 STUB ACME GO 90318000 1 0.0017 NOS Bombay Air Cargo DUBAI
THREAD RING GAUGE 4.056-6 STUB ACME GO 90318000 1 0.0017 NOS Bombay Air Cargo DUBAI
THREAD RING GAUGE 4.173-6 STUB ACME GO 90318000 1 0.0017 NOS Bombay Air Cargo DUBAI
THREAD RING GAUGE 4.198-6 STUB ACME GO 90318000 1 0.0017 NOS Bombay Air Cargo DUBAI
THREAD RING GAUGE 4.407-6 STUB ACME GO 90318000 1 0.0017 NOS Bombay Air Cargo DUBAI
THREAD RING GAUGE 4.746-6 STUB ACME GO 90318000 1 0.002 NOS Bombay Air Cargo DUBAI
THREAD RING GAUGE 4.908-12 STUB ACME GO 90318000 1 0.002 NOS Bombay Air Cargo DUBAI
THREAD RING GAUGE 4.950-4 STUB ACME GO 90318000 1 0.002 NOS Bombay Air Cargo DUBAI
THREAD RING GAUGE 5.458-4 STUB ACME GO 90318000 1 0.002 NOS Bombay Air Cargo DUBAI
THREAD RING GAUGE 5.671-4 STUB ACME GO 90318000 1 0.002 NOS Bombay Air Cargo DUBAI
THREAD RING GAUGE 6.00-4 STUB ACME GO 90318000 1 0.002 NOS Bombay Air Cargo DUBAI
THREAD RING GAUGE 6.093-12 STUB ACME GO 90318000 1 0.0022 NOS Bombay Air Cargo DUBAI
THREAD RING GAUGE 6.647-4 STUB ACME GO 90318000 1 0.002 NOS Bombay Air Cargo DUBAI
THREAD RING GAUGE 6.770-4 STUB ACME GO 90318000 1 0.002 NOS Bombay Air Cargo DUBAI
P.A.SYSTEM/P.A.EQUIPMENT-MICROPHONE ACM-66 85181000 10 0.0107 PCS Tughlakabad Jebel Ali
P.A.SYSTEM/P.A.EQUIPMENT-MICROPHONE ACM-66CH 85181000 10 0.0127 PCS Tughlakabad Jebel Ali
ACM P/N 7010121H03 S/N 4365757 AEROPLANEPART 88033000 1 1.2855 NOS Delhi Air Cargo NEW YORK - JOHN F. K
PARTS OF VALVES NUT HEX JAM-1 1/4-8 ACME-2G-SPL P/NO:18A2301X012 84819090 5 0.0029 PCS Bombay Air Cargo BUDAPEST,
FLEXIBLE INTERMEDIATE BULK CONTAINERS SIZE :- 85X85X105 CMS [ACME BLOCK BRICK] PP GRANUALS 301.19 KGS U.V. STABILIZER 5. 63053200 279 0.0413 KGS Nhava Sheva Sea New York
NUT HEX JAM 1 1/4-8 ACME 2G-SPL PART N 18A231X012 84819090 5 0.0029 NOS Ahmedabad LYON
NUT, HEX, JAM- 1 1/2-6 ACME-2G-SPL 84819090 30 0.0306 NOS Nhava Sheva Sea Port Kelang
INDUSTRIAL VALVE SPARES - PART NO.121930.999.000;DWGREV:00;ASSY,SMHW,SIZE 50, 1.00-8 ACME,HW,12.00 DIA-SL.NO.SKSII-FS-SZ 84819090 6 0.09 NOS Coimbatore SINGAPORE
PARTS FOR BOP VALVE: BLANKING CAP-6.1/2"-4 ACME FEMALE SEAL BORE-4.750" W.P.-10K, SERVICE-H2S, W/1/2" NPT FEMALE SR.NO : 84819090 1 0.014 NOS Bombay Air Cargo NEW YORK
PO NO.4215017763 NUT,HEX,JAM-1 1/4-8 ACME-2G-SPL PART NO.18A2301X012 84819090 2 0.0011 NOS Ahmedabad SHANGHAI

Looking to export Acme from India?

With end to end global trade solutions from Connect2India, we enable Indian SMEs to start and grow their business globally

The following graphs and table will provide data on Acme export based on different Indian ports, top importing ports and top export shipments of Acme from India.

There are about 28 top exporting ports in India which trade Acme from India, Bombay Air Cargo exports the majority of Acme shipments from India with the share of 24.0% , followed by Nhava Sheva Sea with 13.0%.

Moving to top importing ports for Acme from India. Singapore port solely imports 91 shipments of Acme from India and holds the largest share of 9.0%.

Looking to arrange Acme export order to verified buyers across the globe?

Graphical representation for Acme export

Acme - Recent export data

How connect2india can help you export Acme?

Connect2India can help you analyse Acme export data from India to all buying countries. Users can also find here Acme manufacturers, Acme exporters, global buyers etc. Our platform also helps you to figure out the right target market to export Acme and arrange export order, know about the procedure and formalities for export and help you in Acme shipment and logistics. Our trade experts are always available for any help regarding the export of Acme and its products. If you want more information, please get in touch with our trade experts here.

People Also Ask

Which is the most popular Indian port for Acme export?

Bombay Air Cargo is the most popular port for Acme export from India

What are the top three export shipments of Acme traded from India?

Following are the top three export shipments of Acme traded from India :

  • P.A.SYSTEM/P.A.EQUIPMENT-MICROPHONE ACM-66
  • P.A.SYSTEM/P.A.EQUIPMENT-MICROPHONE ACM-66CH
  • ACM P/N 7010121H03 S/N 4365757 AEROPLANEPART